Weather in Novomykolaivka

Ukraine / Dnipropetrovsk Region     48°33′24″N   34°22′53″E
temp.,
°C
wind,
m/s
gust,
m/s
humid.,
%
clouds,
%
prec.,
mm/h
press.,
hPa
HPBL,
m
23 october, sat
sat2300:00+12wsw476358 0.0 1015105
03:00+12sw366473 0.0 1014101
06:00+11wsw3668100 0.0 101490
09:00+13wnw4850100 0.0 1016284
12:00+15wnw3746100 0.0 1017528
15:00+14w5852100 0.0 1017919
18:00+13w485125 0.0 1018526
21:00+9wnw37655 0.0 1019145
24 october, sun
sun2400:00+7nw35585 0.0 102180
03:00+6nw3457100 0.0 102165
06:00+5wnw3670100 0.0 1022124
09:00+6wnw466290 0.0 1023270
12:00+10nw564811 0.0 10231510
15:00+10nw684392 0.0 10221973
18:00+8nw71059100 0.1 10241118
21:00+7nnw7961100 0.1 10261477
25 october, mon
mon2500:00+5nw696794 0.1 10271031
03:00+3nw5107225 0.1 1028423
06:00+1nnw510745 0.0 1030379
09:00+2n58685 0.0 1032516
12:00+6n56455 0.0 10321088
15:00+8n45340 0.0 10321281
18:00+5n34410 0.0 103390
21:00+3nne22450 0.0 103419
26 october, tue
tue2600:00+2ene11483 0.0 103415
03:00+1e11510 0.0 103413
06:000se11540 0.0 103414
09:00+3se22460 0.0 1034139
12:00+8sse34300 0.0 1033734
15:00+10sse33230 0.0 1031938
18:00+6sse33290 0.0 103134
21:00+4s33340 0.0 103132
27 october, wed
wed2700:00+3sse34360 0.0 103051
03:00+1s34590 0.0 103057
06:000sse34598 0.0 102959
09:00+3s234860 0.0 1029140
12:00+9sse343274 0.0 1027605
15:00+11ssw2326100 0.0 1024919
18:00+8ssw2237100 0.0 102412
21:00+7wsw2242100 0.0 102427